| time (UTC) | temp F | wind direction | speed knots | gust knots | rain 1hr in | rain 24hr in | rain mn in | humidity % | barometer mb |
| 20260831103104 | 68 | 333 | 11.3 | 19.1 | 0.00 | 0.83 | 0.72 | 76 | 1013.8 |
| 20260831102559 | 67 | 294 | 9.6 | 20.9 | 0.00 | 0.83 | 0.72 | 76 | 1013.7 |
| 20260831102058 | 68 | 284 | 9.6 | 20.9 | 0.00 | 0.83 | 0.72 | 76 | 1013.7 |
| 20260831101606 | 68 | 308 | 12.2 | 20.0 | 0.00 | 0.83 | 0.72 | 76 | 1013.6 |
| 20260831101057 | 68 | 296 | 12.2 | 20.0 | 0.00 | 0.83 | 0.72 | 76 | 1013.5 |
| 20260831100558 | 68 | 360 | 11.3 | 19.1 | 0.00 | 0.83 | 0.72 | 76 | 1013.4 |
| 20260831100106 | 68 | 294 | 11.3 | 20.0 | 0.00 | 0.83 | 0.72 | 75 | 1013.2 |
| 20260831095557 | 68 | 290 | 12.2 | 21.7 | 0.00 | 0.83 | 0.72 | 76 | 1013.2 |
| 20260831095058 | 67 | 275 | 13.9 | 21.7 | 0.00 | 0.83 | 0.72 | 75 | 1013.2 |
| 20260831094608 | 67 | 259 | 8.7 | 16.5 | 0.00 | 0.83 | 0.72 | 77 | 1013.1 |
| 20260831094101 | 67 | 274 | 11.3 | 17.4 | 0.00 | 0.83 | 0.72 | 77 | 1013.1 |
| 20260831093558 | 66 | 299 | 8.7 | 17.4 | 0.00 | 0.83 | 0.72 | 79 | 1013.0 |
| 20260831093108 | 66 | 286 | 11.3 | 18.2 | 0.00 | 0.83 | 0.72 | 78 | 1012.7 |
| 20260831092559 | 66 | 271 | 10.4 | 18.2 | 0.00 | 0.83 | 0.72 | 79 | 1012.7 |
| 20260831092058 | 66 | 269 | 12.2 | 20.0 | 0.00 | 0.83 | 0.72 | 79 | 1012.5 |
| 20260831091603 | 66 | 307 | 9.6 | 20.0 | 0.00 | 0.83 | 0.72 | 79 | 1012.4 |
| 20260831091058 | 65 | 266 | 11.3 | 20.9 | 0.00 | 0.83 | 0.72 | 79 | 1012.3 |
| 20260831090558 | 65 | 313 | 10.4 | 21.7 | 0.00 | 0.83 | 0.72 | 80 | 1012.3 |
| 20260831090105 | 66 | 300 | 13.0 | 21.7 | 0.00 | 0.83 | 0.72 | 79 | 1012.2 |
| 20260831085558 | 66 | 248 | 10.4 | 17.4 | 0.00 | 0.83 | 0.72 | 79 | 1012.1 |
| 20260831085059 | 65 | 306 | 9.6 | 17.4 | 0.00 | 0.83 | 0.72 | 80 | 1011.9 |
| 20260831084611 | 65 | 320 | 10.4 | 17.4 | 0.00 | 0.83 | 0.72 | 79 | 1011.9 |
| 20260831084059 | 65 | 276 | 8.7 | 18.2 | 0.00 | 0.83 | 0.72 | 80 | 1011.7 |
| 20260831083558 | 65 | 299 | 10.4 | 18.2 | 0.00 | 0.83 | 0.72 | 80 | 1011.7 |
| 20260831083113 | 65 | 301 | 10.4 | 18.2 | 0.00 | 0.83 | 0.72 | 80 | 1011.7 |
| 20260831082558 | 65 | 298 | 10.4 | 18.2 | 0.00 | 0.83 | 0.72 | 80 | 1011.5 |
| 20260831082058 | 65 | 302 | 9.6 | 18.2 | 0.00 | 0.83 | 0.72 | 82 | 1011.4 |
| 20260831081607 | 65 | 305 | 11.3 | 17.4 | 0.00 | 0.83 | 0.72 | 81 | 1011.4 |
| 20260831081058 | 64 | 309 | 7.8 | 15.6 | 0.00 | 0.83 | 0.72 | 83 | 1011.3 |
| 20260831080556 | 64 | 314 | 8.7 | 15.6 | 0.00 | 0.83 | 0.72 | 83 | 1011.3 |
| 20260831080107 | 64 | 286 | 7.8 | 17.4 | 0.00 | 0.83 | 0.72 | 82 | 1011.3 |
| 20260831075558 | 64 | 302 | 8.7 | 17.4 | 0.00 | 0.83 | 0.72 | 82 | 1011.1 |
| 20260831075057 | 64 | 308 | 9.6 | 20.0 | 0.00 | 0.83 | 0.72 | 82 | 1011.1 |
| 20260831074618 | 64 | 302 | 12.2 | 20.0 | 0.00 | 0.83 | 0.72 | 81 | 1011.1 |
| 20260831074102 | 64 | 304 | 12.2 | 18.2 | 0.00 | 0.83 | 0.72 | 83 | 1010.9 |
| 20260831073557 | 64 | 321 | 11.3 | 19.1 | 0.00 | 0.83 | 0.72 | 82 | 1010.8 |
| 20260831073107 | 64 | 286 | 11.3 | 24.3 | 0.00 | 0.83 | 0.72 | 82 | 1010.7 |
| 20260831072559 | 64 | 305 | 12.2 | 24.3 | 0.00 | 0.83 | 0.72 | 82 | 1010.6 |
| 20260831072058 | 64 | 281 | 11.3 | 22.6 | 0.00 | 0.83 | 0.72 | 81 | 1010.5 |
| 20260831071602 | 64 | 297 | 12.2 | 19.1 | 0.00 | 0.83 | 0.72 | 82 | 1010.3 |
| 20260831071058 | 64 | 264 | 11.3 | 17.4 | 0.00 | 0.83 | 0.72 | 82 | 1010.2 |
| 20260831070558 | 64 | 317 | 10.4 | 20.9 | 0.00 | 0.83 | 0.72 | 83 | 1010.0 |
| 20260831070111 | 64 | 292 | 12.2 | 21.7 | 0.00 | 0.83 | 0.72 | 82 | 1010.0 |
| 20260831065600 | 64 | 290 | 12.2 | 21.7 | 0.00 | 0.83 | 0.72 | 82 | 1009.8 |
| 20260831065057 | 64 | 262 | 11.3 | 26.9 | 0.00 | 0.83 | 0.72 | 83 | 1009.9 |
| 20260831064604 | 63 | 309 | 12.2 | 26.9 | 0.00 | 0.83 | 0.72 | 83 | 1009.6 |
| 20260831064101 | 63 | 290 | 10.4 | 19.1 | 0.00 | 0.83 | 0.72 | 84 | 1009.6 |
| 20260831063558 | 63 | 300 | 12.2 | 19.1 | 0.00 | 0.83 | 0.72 | 84 | 1009.4 |
| 20260831063108 | 63 | 284 | 10.4 | 19.1 | 0.00 | 0.83 | 0.72 | 83 | 1009.4 |
| 20260831062558 | 63 | 299 | 10.4 | 19.1 | 0.00 | 0.83 | 0.72 | 84 | 1009.3 |
| 20260831062101 | 63 | 289 | 12.2 | 20.0 | 0.00 | 0.83 | 0.72 | 84 | 1009.2 |
| 20260831061609 | 63 | 296 | 11.3 | 21.7 | 0.00 | 0.83 | 0.72 | 83 | 1009.0 |
| 20260831061058 | 62 | 302 | 13.0 | 22.6 | 0.00 | 0.83 | 0.72 | 84 | 1009.0 |
| 20260831060558 | 62 | 289 | 12.2 | 22.6 | 0.00 | 0.83 | 0.72 | 84 | 1008.8 |
| 20260831060110 | 62 | 289 | 11.3 | 19.1 | 0.00 | 0.83 | 0.72 | 85 | 1008.6 |
| 20260831055601 | 62 | 282 | 11.3 | 19.1 | 0.00 | 0.83 | 0.72 | 85 | 1008.6 |
| 20260831055101 | 62 | 293 | 7.8 | 15.6 | 0.00 | 0.83 | 0.72 | 86 | 1008.4 |
| 20260831054606 | 62 | 293 | 9.6 | 15.6 | 0.00 | 0.83 | 0.72 | 88 | 1008.4 |
| 20260831054059 | 61 | 260 | 8.7 | 18.2 | 0.00 | 0.83 | 0.72 | 87 | 1008.2 |
| 20260831053601 | 61 | 306 | 11.3 | 18.2 | 0.00 | 0.83 | 0.72 | 86 | 1008.3 |
| 20260831053102 | 61 | 292 | 9.6 | 18.2 | 0.00 | 0.83 | 0.72 | 86 | 1008.0 |
| 20260831052559 | 61 | 292 | 9.6 | 18.2 | 0.04 | 0.83 | 0.72 | 86 | 1008.0 |
| 20260831052059 | 61 | 266 | 8.7 | 18.2 | 0.06 | 0.83 | 0.72 | 87 | 1007.9 |
| 20260831051613 | 61 | 323 | 7.8 | 16.5 | 0.12 | 0.83 | 0.72 | 88 | 1007.8 |
| 20260831051057 | 61 | 284 | 9.6 | 16.5 | 0.13 | 0.83 | 0.72 | 88 | 1007.5 |
| 20260831050558 | 61 | 309 | 7.0 | 13.9 | 0.13 | 0.83 | 0.72 | 89 | 1007.5 |
| 20260831050113 | 61 | 289 | 6.1 | 15.6 | 0.13 | 0.83 | 0.72 | 89 | 1007.4 |
| 20260831045558 | 61 | 281 | 7.0 | 15.6 | 0.13 | 0.83 | 0.72 | 90 | 1007.3 |
| 20260831045101 | 60 | 207 | 8.7 | 13.9 | 0.13 | 0.83 | 0.72 | 91 | 1007.3 |
| 20260831044615 | 60 | 290 | 1.7 | 8.7 | 0.14 | 0.83 | 0.72 | 91 | 1007.2 |
| 20260831044059 | 59 | 236 | 3.5 | 10.4 | 0.21 | 0.83 | 0.72 | 91 | 1007.3 |
| 20260831043600 | 59 | 275 | 2.6 | 10.4 | 0.21 | 0.83 | 0.72 | 90 | 1007.2 |
| 20260831043105 | 59 | 252 | 4.3 | 10.4 | 0.21 | 0.83 | 0.72 | 91 | 1007.2 |
| 20260831042601 | 59 | 285 | 3.5 | 8.7 | 0.16 | 0.78 | 0.67 | 90 | 1007.2 |
| 20260831042058 | 59 | 238 | 3.5 | 8.7 | 0.14 | 0.77 | 0.66 | 90 | 1007.0 |
| 20260831041606 | 59 | 248 | 3.5 | 8.7 | 0.08 | 0.70 | 0.59 | 90 | 1007.2 |
| 20260831041100 | 59 | 232 | 4.3 | 8.7 | 0.07 | 0.70 | 0.59 | 90 | 1007.2 |
| 20260831040559 | 59 | 248 | 3.5 | 8.7 | 0.07 | 0.70 | 0.59 | 90 | 1007.3 |
| 20260831040109 | 59 | 254 | 4.3 | 8.7 | 0.07 | 0.70 | 0.59 | 90 | 1007.2 |
| 20260831035557 | 59 | 246 | 4.3 | 9.6 | 0.07 | 0.70 | 0.59 | 90 | 1007.0 |
| 20260831035057 | 59 | 300 | 4.3 | 10.4 | 0.08 | 0.70 | 0.59 | 90 | 1007.0 |
| 20260831034609 | 60 | 245 | 5.2 | 11.3 | 0.07 | 0.68 | 0.57 | 88 | 1007.2 |
| 20260831034058 | 60 | 229 | 4.3 | 11.3 | 0.02 | 0.62 | 0.51 | 89 | 1007.1 |
| 20260831033558 | 59 | 282 | 4.3 | 8.7 | 0.03 | 0.62 | 0.51 | 89 | 1006.9 |
| 20260831033119 | 59 | 295 | 3.5 | 8.7 | 0.03 | 0.62 | 0.51 | 89 | 1006.8 |
| 20260831032557 | 59 | 314 | 3.5 | 9.6 | 0.11 | 0.62 | 0.51 | 89 | 1006.8 |
| 20260831032058 | 59 | 300 | 4.3 | 9.6 | 0.21 | 0.62 | 0.51 | 89 | 1006.8 |
| 20260831031603 | 59 | 313 | 5.2 | 9.6 | 0.27 | 0.62 | 0.51 | 89 | 1006.6 |
| 20260831031058 | 59 | 300 | 5.2 | 11.3 | 0.37 | 0.62 | 0.51 | 90 | 1006.7 |
| 20260831030558 | 59 | 284 | 5.2 | 11.3 | 0.38 | 0.62 | 0.51 | 90 | 1006.7 |
| 20260831025558 | 58 | 271 | 3.5 | 9.6 | 0.40 | 0.62 | 0.51 | 90 | 1006.7 |
| 20260831025059 | 58 | 316 | 4.3 | 8.7 | 0.40 | 0.61 | 0.50 | 90 | 1006.7 |
| 20260831024616 | 58 | 16 | 2.6 | 8.7 | 0.40 | 0.61 | 0.50 | 90 | 1006.6 |
| 20260831024058 | 58 | 234 | 4.3 | 10.4 | 0.38 | 0.59 | 0.48 | 90 | 1006.5 |
| 20260831023555 | 58 | 209 | 3.5 | 10.4 | 0.37 | 0.59 | 0.48 | 90 | 1006.2 |
| 20260831023126 | 58 | 209 | 1.7 | 5.2 | 0.37 | 0.58 | 0.47 | 90 | 1006.4 |
| 20260831022601 | 58 | 220 | 2.6 | 6.1 | 0.29 | 0.50 | 0.39 | 90 | 1006.5 |
| 20260831022058 | 58 | 274 | 1.7 | 6.1 | 0.20 | 0.40 | 0.29 | 89 | 1006.4 |
| 20260831021601 | 58 | 286 | 2.6 | 15.6 | 0.14 | 0.34 | 0.23 | 88 | 1006.5 |
| 20260831021059 | 58 | 239 | 2.6 | 15.6 | 0.08 | 0.24 | 0.13 | 88 | 1006.4 |
| 20260831020602 | 58 | 191 | 9.6 | 15.6 | 0.09 | 0.23 | 0.12 | 88 | 1006.2 |
| 20260831020114 | 58 | 204 | 6.1 | 10.4 | 0.08 | 0.22 | 0.11 | 88 | 1006.0 |
| 20260831015557 | 58 | 195 | 6.1 | 14.8 | 0.08 | 0.21 | 0.10 | 88 | 1006.1 |
| 20260831015058 | 58 | 225 | 6.1 | 14.8 | 0.09 | 0.21 | 0.10 | 87 | 1005.9 |
| 20260831014605 | 58 | 213 | 5.2 | 12.2 | 0.10 | 0.21 | 0.10 | 87 | 1005.8 |
| 20260831014058 | 58 | 193 | 4.3 | 7.8 | 0.10 | 0.21 | 0.10 | 86 | 1005.7 |
| 20260831013558 | 58 | 186 | 3.5 | 7.0 | 0.10 | 0.21 | 0.10 | 87 | 1005.9 |
| 20260831013102 | 58 | 217 | 3.5 | 6.1 | 0.10 | 0.21 | 0.10 | 87 | 1006.0 |
| 20260831012558 | 58 | 218 | 2.6 | 10.4 | 0.09 | 0.20 | 0.09 | 87 | 1006.0 |
| 20260831012057 | 58 | 219 | 2.6 | 10.4 | 0.09 | 0.20 | 0.09 | 87 | 1006.0 |
| 20260831011605 | 58 | 209 | 2.6 | 8.7 | 0.07 | 0.18 | 0.07 | 86 | 1006.0 |
| 20260831011057 | 59 | 223 | 4.3 | 8.7 | 0.04 | 0.15 | 0.04 | 86 | 1006.1 |
| 20260831010558 | 59 | 224 | 2.6 | 9.6 | 0.03 | 0.14 | 0.03 | 85 | 1006.1 |
| 20260831010107 | 59 | 233 | 3.5 | 9.6 | 0.02 | 0.13 | 0.02 | 85 | 1005.9 |
| 20260831005558 | 59 | 227 | 3.5 | 9.6 | 0.01 | 0.12 | 0.01 | 84 | 1005.9 |
| 20260831005102 | 59 | 207 | 3.5 | 8.7 | 0.00 | 0.11 | 0.00 | 84 | 1005.9 |
| 20260831004606 | 59 | 227 | 4.3 | 8.7 | 0.00 | 0.11 | 0.00 | 84 | 1005.8 |
| 20260831004101 | 60 | 237 | 3.5 | 10.4 | 0.00 | 0.11 | 0.00 | 83 | 1005.8 |
| 20260831003559 | 60 | 246 | 4.3 | 11.3 | 0.00 | 0.11 | 0.00 | 83 | 1005.8 |
| 20260831003108 | 60 | 236 | 6.1 | 11.3 | 0.00 | 0.11 | 0.00 | 83 | 1005.6 |
| 20260831002557 | 60 | 272 | 4.3 | 10.4 | 0.00 | 0.11 | 0.00 | 84 | 1005.6 |
| 20260831002057 | 60 | 248 | 5.2 | 10.4 | 0.00 | 0.11 | 0.00 | 84 | 1005.7 |
| 20260831001611 | 60 | 273 | 5.2 | 13.9 | 0.00 | 0.11 | 0.00 | 84 | 1005.7 |
| 20260831001058 | 60 | 234 | 3.5 | 13.9 | 0.00 | 0.11 | 0.00 | 84 | 1005.6 |
| 20260831000558 | 60 | 215 | 7.8 | 13.9 | 0.00 | 0.11 | 0.00 | 84 | 1005.6 |
| 20260831000109 | 60 | 265 | 7.0 | 13.9 | 0.00 | 0.11 | 0.00 | 84 | 1005.5 |
| 20260830235559 | 59 | 234 | 7.0 | 13.9 | 0.00 | 0.11 | 0.00 | 84 | 1005.4 |
| 20260830235057 | 59 | 222 | 5.2 | 11.3 | 0.00 | 0.11 | 0.00 | 84 | 1005.4 |
| 20260830234608 | 59 | 244 | 5.2 | 13.0 | 0.00 | 0.11 | 0.00 | 83 | 1005.2 |
| 20260830234100 | 59 | 229 | 4.3 | 13.0 | 0.00 | 0.11 | 0.00 | 84 | 1005.1 |
| 20260830233559 | 59 | 275 | 4.3 | 12.2 | 0.00 | 0.11 | 0.00 | 84 | 1005.1 |
| 20260830233113 | 59 | 242 | 3.5 | 7.8 | 0.00 | 0.11 | 0.00 | 84 | 1005.0 |
| 20260830232601 | 59 | 242 | 3.5 | 8.7 | 0.00 | 0.11 | 0.00 | 83 | 1004.8 |
| 20260830232058 | 59 | 210 | 3.5 | 9.6 | 0.00 | 0.11 | 0.00 | 84 | 1004.7 |
| 20260830231607 | 59 | 208 | 5.2 | 9.6 | 0.00 | 0.11 | 0.00 | 84 | 1004.8 |
| 20260830231057 | 59 | 232 | 4.3 | 9.6 | 0.00 | 0.11 | 0.00 | 86 | 1004.9 |
| 20260830230558 | 59 | 216 | 4.3 | 9.6 | 0.00 | 0.11 | 0.00 | 86 | 1004.8 |
| 20260830230106 | 59 | 220 | 2.6 | 7.8 | 0.00 | 0.11 | 0.00 | 86 | 1004.6 |
| 20260830225558 | 60 | 233 | 4.3 | 15.6 | 0.00 | 0.11 | 0.11 | 86 | 1004.6 |
| 20260830225058 | 60 | 207 | 4.3 | 15.6 | 0.00 | 0.11 | 0.11 | 86 | 1004.7 |
| 20260830224600 | 60 | 217 | 7.8 | 15.6 | 0.00 | 0.11 | 0.11 | 85 | 1004.6 |
| 20260830224058 | 60 | 220 | 5.2 | 10.4 | 0.00 | 0.11 | 0.11 | 86 | 1004.5 |
| 20260830223602 | 61 | 225 | 6.1 | 10.4 | 0.00 | 0.11 | 0.11 | 86 | 1004.6 |
| 20260830223104 | 61 | 207 | 3.5 | 9.6 | 0.00 | 0.11 | 0.11 | 86 | 1004.5 |
| 20260830222558 | 61 | 217 | 3.5 | 9.6 | 0.00 | 0.10 | 0.10 | 87 | 1004.6 |
| 20260830222058 | 61 | 218 | 6.1 | 9.6 | 0.01 | 0.10 | 0.10 | 87 | 1004.7 |
| 20260830221611 | 60 | 235 | 4.3 | 7.0 | 0.02 | 0.10 | 0.10 | 88 | 1004.9 |
| 20260830221102 | 60 | 221 | 2.6 | 3.5 | 0.02 | 0.10 | 0.10 | 88 | 1004.9 |
| 20260830220558 | 60 | 191 | 0.9 | 5.2 | 0.04 | 0.10 | 0.10 | 87 | 1004.8 |
| 20260830215558 | 61 | 203 | 3.5 | 10.4 | 0.04 | 0.10 | 0.10 | 87 | 1004.9 |
| 20260830215059 | 61 | 202 | 6.1 | 10.4 | 0.04 | 0.10 | 0.10 | 87 | 1004.8 |
| 20260830214629 | 61 | 224 | 3.5 | 8.7 | 0.04 | 0.10 | 0.10 | 87 | 1004.7 |
| 20260830214058 | 61 | 167 | 5.2 | 10.4 | 0.04 | 0.10 | 0.10 | 87 | 1004.7 |
| 20260830213558 | 61 | 214 | 5.2 | 10.4 | 0.04 | 0.10 | 0.10 | 87 | 1004.7 |
| 20260830213105 | 61 | 158 | 4.3 | 10.4 | 0.04 | 0.10 | 0.10 | 88 | 1004.6 |
| 20260830212558 | 61 | 188 | 5.2 | 10.4 | 0.03 | 0.09 | 0.09 | 88 | 1004.6 |
| 20260830212059 | 61 | 140 | 4.3 | 8.7 | 0.03 | 0.08 | 0.08 | 88 | 1004.5 |
| 20260830211602 | 61 | 211 | 0.9 | 6.1 | 0.02 | 0.07 | 0.07 | 87 | 1004.5 |
| 20260830211057 | 61 | 209 | 3.5 | 7.8 | 0.02 | 0.07 | 0.07 | 87 | 1004.5 |
| 20260830210557 | 61 | 149 | 1.7 | 7.8 | 0.00 | 0.05 | 0.05 | 86 | 1004.5 |
| 20260830210110 | 61 | 120 | 2.6 | 7.0 | 0.00 | 0.05 | 0.05 | 86 | 1004.5 |
| 20260830205603 | 61 | 121 | 2.6 | 7.0 | 0.00 | 0.05 | 0.05 | 85 | 1004.5 |
| 20260830205059 | 61 | 131 | 1.7 | 7.0 | 0.00 | 0.05 | 0.05 | 85 | 1004.7 |
| 20260830204605 | 61 | 159 | 2.6 | 7.8 | 0.00 | 0.05 | 0.05 | 85 | 1004.8 |
| 20260830204103 | 61 | 128 | 2.6 | 7.8 | 0.00 | 0.05 | 0.05 | 85 | 1004.6 |
| 20260830203603 | 61 | 150 | 2.6 | 7.0 | 0.00 | 0.05 | 0.05 | 85 | 1004.8 |
| 20260830203102 | 61 | 92 | 2.6 | 7.8 | 0.00 | 0.05 | 0.05 | 85 | 1004.8 |
| 20260830202604 | 61 | 140 | 2.6 | 7.8 | 0.00 | 0.05 | 0.05 | 85 | 1005.0 |
| 20260830202057 | 61 | 112 | 3.5 | 7.8 | 0.00 | 0.05 | 0.05 | 85 | 1005.1 |
| 20260830201612 | 61 | 144 | 1.7 | 7.0 | 0.00 | 0.05 | 0.05 | 84 | 1005.0 |
| 20260830201056 | 62 | 119 | 2.6 | 9.6 | 0.00 | 0.05 | 0.05 | 84 | 1005.0 |
| 20260830200556 | 62 | 150 | 4.3 | 9.6 | 0.00 | 0.05 | 0.05 | 84 | 1005.2 |
| 20260830200113 | 62 | 131 | 1.7 | 6.1 | 0.00 | 0.05 | 0.05 | 84 | 1005.2 |
| 20260830195556 | 62 | 111 | 1.7 | 5.2 | 0.00 | 0.06 | 0.05 | 84 | 1005.1 |
| 20260830195056 | 62 | 166 | 0.9 | 10.4 | 0.00 | 0.06 | 0.05 | 84 | 1005.3 |
| 20260830194607 | 62 | 188 | 2.6 | 10.4 | 0.00 | 0.06 | 0.05 | 84 | 1005.3 |
| 20260830194102 | 62 | 182 | 3.5 | 6.1 | 0.00 | 0.06 | 0.05 | 85 | 1005.3 |
| 20260830193601 | 62 | 171 | 2.6 | 8.7 | 0.00 | 0.06 | 0.05 | 85 | 1005.3 |
| 20260830193131 | 62 | 196 | 2.6 | 8.7 | 0.00 | 0.06 | 0.05 | 85 | 1005.3 |
| 20260830192600 | 62 | 202 | 4.3 | 8.7 | 0.00 | 0.06 | 0.05 | 85 | 1005.1 |
| 20260830192100 | 62 | 202 | 3.5 | 7.8 | 0.00 | 0.06 | 0.05 | 85 | 1005.2 |
| 20260830191626 | 62 | 194 | 3.5 | 8.7 | 0.00 | 0.06 | 0.05 | 85 | 1005.3 |
| 20260830191103 | 62 | 202 | 4.3 | 10.4 | 0.00 | 0.06 | 0.05 | 85 | 1005.2 |
| 20260830190601 | 62 | 200 | 4.3 | 10.4 | 0.00 | 0.06 | 0.05 | 85 | 1005.3 |
| 20260830190110 | 62 | 180 | 4.3 | 11.3 | 0.00 | 0.06 | 0.05 | 86 | 1005.2 |
| 20260830185600 | 63 | 205 | 6.1 | 11.3 | 0.00 | 0.07 | 0.05 | 86 | 1005.3 |
| 20260830185100 | 63 | 212 | 6.1 | 11.3 | 0.00 | 0.07 | 0.05 | 86 | 1005.1 |
| 20260830184606 | 63 | 216 | 5.2 | 9.6 | 0.00 | 0.07 | 0.05 | 86 | 1005.1 |
| 20260830184100 | 63 | 221 | 5.2 | 11.3 | 0.00 | 0.07 | 0.05 | 86 | 1005.1 |
| 20260830183601 | 63 | 196 | 5.2 | 11.3 | 0.00 | 0.07 | 0.05 | 86 | 1005.1 |
| 20260830183108 | 63 | 165 | 6.1 | 9.6 | 0.00 | 0.07 | 0.05 | 86 | 1005.1 |
| 20260830182601 | 63 | 204 | 4.3 | 10.4 | 0.01 | 0.07 | 0.05 | 86 | 1005.1 |
| 20260830182101 | 63 | 184 | 6.1 | 13.9 | 0.01 | 0.07 | 0.05 | 86 | 1004.9 |
| 20260830181610 | 63 | 191 | 5.2 | 16.5 | 0.02 | 0.07 | 0.05 | 85 | 1005.1 |
| 20260830181102 | 63 | 202 | 7.0 | 16.5 | 0.02 | 0.07 | 0.05 | 85 | 1005.1 |
| 20260830180603 | 64 | 206 | 4.3 | 11.3 | 0.02 | 0.07 | 0.05 | 86 | 1005.1 |
| 20260830180107 | 64 | 196 | 4.3 | 10.4 | 0.03 | 0.07 | 0.05 | 86 | 1005.0 |
| 20260830175600 | 63 | 149 | 2.6 | 9.6 | 0.02 | 0.06 | 0.04 | 87 | 1005.0 |
| 20260830175100 | 63 | 167 | 2.6 | 8.7 | 0.02 | 0.06 | 0.04 | 87 | 1005.2 |
| 20260830174618 | 64 | 167 | 2.6 | 7.8 | 0.03 | 0.06 | 0.04 | 87 | 1005.2 |
| 20260830174100 | 64 | 166 | 1.7 | 9.6 | 0.04 | 0.06 | 0.04 | 87 | 1005.4 |
| 20260830173602 | 64 | 188 | 2.6 | 9.6 | 0.04 | 0.06 | 0.04 | 87 | 1005.4 |
| 20260830173116 | 63 | 198 | 4.3 | 9.6 | 0.04 | 0.06 | 0.04 | 87 | 1005.6 |
| 20260830172600 | 63 | 178 | 3.5 | 7.0 | 0.03 | 0.05 | 0.03 | 86 | 1005.7 |
| 20260830172100 | 63 | 193 | 4.3 | 9.6 | 0.03 | 0.05 | 0.03 | 86 | 1005.8 |
| 20260830171605 | 63 | 196 | 4.3 | 10.4 | 0.03 | 0.04 | 0.03 | 86 | 1005.7 |
| 20260830171100 | 63 | 200 | 4.3 | 10.4 | 0.03 | 0.04 | 0.03 | 85 | 1005.7 |
| 20260830170600 | 64 | 182 | 4.3 | 10.4 | 0.03 | 0.04 | 0.03 | 85 | 1005.9 |
| 20260830170105 | 64 | 254 | 4.3 | 14.8 | 0.02 | 0.03 | 0.02 | 83 | 1005.8 |
| 20260830165559 | 64 | 196 | 8.7 | 14.8 | 0.02 | 0.08 | 0.02 | 82 | 1005.8 |
| 20260830165059 | 64 | 208 | 7.8 | 19.1 | 0.02 | 0.08 | 0.02 | 81 | 1005.8 |
| 20260830164605 | 65 | 193 | 7.0 | 20.9 | 0.00 | 0.07 | 0.00 | 80 | 1005.8 |
| 20260830164100 | 66 | 169 | 8.7 | 20.9 | 0.00 | 0.06 | 0.00 | 77 | 1005.8 |
| 20260830163600 | 67 | 167 | 7.8 | 23.5 | 0.00 | 0.06 | 0.00 | 75 | 1005.9 |
| 20260830163102 | 67 | 196 | 10.4 | 23.5 | 0.00 | 0.06 | 0.00 | 75 | 1005.7 |
| 20260830162559 | 67 | 185 | 7.8 | 20.9 | 0.00 | 0.06 | 0.00 | 77 | 1005.6 |
| 20260830162059 | 67 | 233 | 8.7 | 20.9 | 0.00 | 0.06 | 0.00 | 78 | 1005.9 |
| 20260830161602 | 67 | 157 | 6.1 | 14.8 | 0.00 | 0.06 | 0.00 | 78 | 1006.0 |
| 20260830161059 | 67 | 165 | 7.0 | 13.9 | 0.00 | 0.06 | 0.00 | 77 | 1006.0 |
| 20260830160559 | 67 | 224 | 7.0 | 13.0 | 0.00 | 0.06 | 0.00 | 78 | 1006.1 |
| 20260830160107 | 67 | 215 | 7.0 | 15.6 | 0.00 | 0.06 | 0.00 | 77 | 1006.2 |
| 20260830155600 | 67 | 207 | 6.1 | 15.6 | 0.00 | 0.06 | 0.00 | 76 | 1006.1 |
| 20260830155103 | 67 | 175 | 6.1 | 15.6 | 0.00 | 0.06 | 0.00 | 76 | 1006.0 |
| 20260830154607 | 68 | 204 | 7.8 | 15.6 | 0.00 | 0.06 | 0.00 | 76 | 1005.9 |
| 20260830154100 | 68 | 177 | 6.1 | 12.2 | 0.00 | 0.06 | 0.00 | 76 | 1005.9 |
| 20260830153600 | 68 | 203 | 5.2 | 13.0 | 0.00 | 0.06 | 0.00 | 76 | 1006.1 |
| 20260830153110 | 68 | 161 | 6.1 | 13.0 | 0.00 | 0.06 | 0.00 | 75 | 1006.1 |
| 20260830152559 | 68 | 234 | 5.2 | 11.3 | 0.00 | 0.06 | 0.00 | 75 | 1006.1 |
| 20260830152059 | 68 | 199 | 5.2 | 11.3 | 0.00 | 0.06 | 0.00 | 75 | 1006.1 |
| 20260830151602 | 68 | 209 | 5.2 | 10.4 | 0.00 | 0.06 | 0.00 | 75 | 1006.0 |
| 20260830151100 | 68 | 172 | 4.3 | 13.0 | 0.00 | 0.06 | 0.00 | 75 | 1006.0 |
| 20260830150601 | 68 | 192 | 4.3 | 13.9 | 0.00 | 0.06 | 0.00 | 75 | 1005.8 |
| 20260830150108 | 68 | 153 | 7.8 | 14.8 | 0.00 | 0.06 | 0.00 | 74 | 1005.7 |
| 20260830145600 | 68 | 165 | 7.0 | 18.2 | 0.00 | 0.06 | 0.00 | 74 | 1006.1 |
| 20260830145100 | 68 | 220 | 7.0 | 18.2 | 0.00 | 0.06 | 0.00 | 73 | 1006.3 |
| 20260830144610 | 68 | 188 | 7.0 | 18.2 | 0.00 | 0.06 | 0.00 | 73 | 1006.4 |
| 20260830144059 | 68 | 197 | 8.7 | 18.2 | 0.00 | 0.06 | 0.00 | 72 | 1006.5 |
| 20260830143603 | 69 | 182 | 7.8 | 14.8 | 0.00 | 0.06 | 0.00 | 72 | 1006.5 |
| 20260830143104 | 69 | 180 | 7.8 | 13.9 | 0.00 | 0.06 | 0.00 | 73 | 1006.9 |
| 20260830142600 | 69 | 190 | 7.0 | 19.1 | 0.00 | 0.06 | 0.00 | 73 | 1007.0 |
| 20260830142100 | 68 | 207 | 7.8 | 19.1 | 0.00 | 0.06 | 0.00 | 72 | 1007.1 |
| 20260830141603 | 68 | 191 | 8.7 | 19.1 | 0.00 | 0.06 | 0.00 | 72 | 1007.3 |
| 20260830141100 | 68 | 182 | 7.0 | 19.1 | 0.00 | 0.06 | 0.00 | 73 | 1007.2 |
| 20260830140559 | 68 | 202 | 6.1 | 19.1 | 0.00 | 0.06 | 0.00 | 74 | 1007.2 |
| 20260830140110 | 69 | 205 | 8.7 | 19.1 | 0.00 | 0.06 | 0.00 | 72 | 1007.1 |
| 20260830135602 | 70 | 209 | 7.8 | 20.0 | 0.00 | 0.06 | 0.00 | 68 | 1007.2 |
| 20260830135100 | 70 | 221 | 9.6 | 20.0 | 0.00 | 0.06 | 0.00 | 69 | 1007.0 |
| 20260830134614 | 71 | 203 | 9.6 | 20.0 | 0.00 | 0.06 | 0.00 | 68 | 1007.1 |
| 20260830134105 | 71 | 220 | 9.6 | 20.0 | 0.00 | 0.06 | 0.00 | 67 | 1007.1 |
| 20260830133600 | 71 | 192 | 10.4 | 20.9 | 0.00 | 0.06 | 0.00 | 67 | 1007.2 |
| 20260830133111 | 71 | 192 | 7.8 | 20.9 | 0.00 | 0.06 | 0.00 | 68 | 1007.2 |
| 20260830132559 | 71 | 177 | 8.7 | 19.1 | 0.00 | 0.06 | 0.00 | 67 | 1007.1 |
| 20260830132059 | 72 | 182 | 5.2 | 15.6 | 0.00 | 0.06 | 0.00 | 67 | 1007.1 |
| 20260830131606 | 72 | 192 | 7.0 | 15.6 | 0.00 | 0.06 | 0.00 | 67 | 1006.9 |
| 20260830131100 | 73 | 209 | 6.1 | 14.8 | 0.00 | 0.06 | 0.00 | 66 | 1006.9 |
| 20260830130600 | 74 | 189 | 7.8 | 15.6 | 0.00 | 0.06 | 0.00 | 64 | 1007.0 |
| 20260830130111 | 73 | 205 | 8.7 | 20.9 | 0.00 | 0.06 | 0.00 | 67 | 1007.0 |
| 20260830125600 | 73 | 184 | 6.1 | 20.9 | 0.00 | 0.35 | 0.00 | 71 | 1007.1 |
| 20260830125059 | 72 | 168 | 6.1 | 13.9 | 0.00 | 0.35 | 0.00 | 66 | 1007.3 |
| 20260830124604 | 72 | 171 | 6.1 | 14.8 | 0.00 | 0.35 | 0.00 | 69 | 1007.4 |
| 20260830124059 | 72 | 208 | 7.0 | 14.8 | 0.00 | 0.35 | 0.00 | 64 | 1007.5 |
| 20260830123600 | 72 | 211 | 5.2 | 13.0 | 0.00 | 0.35 | 0.00 | 65 | 1007.4 |
| 20260830123109 | 72 | 206 | 3.5 | 9.6 | 0.00 | 0.35 | 0.00 | 70 | 1007.5 |
| 20260830122559 | 71 | 217 | 4.3 | 9.6 | 0.00 | 0.35 | 0.00 | 70 | 1007.6 |
| 20260830122100 | 70 | 215 | 5.2 | 11.3 | 0.00 | 0.35 | 0.00 | 71 | 1007.6 |
| 20260830121609 | 69 | 217 | 3.5 | 11.3 | 0.00 | 0.35 | 0.00 | 75 | 1007.7 |
| 20260830121059 | 68 | 219 | 4.3 | 10.4 | 0.00 | 0.35 | 0.00 | 75 | 1007.8 |
| 20260830120601 | 68 | 199 | 4.3 | 10.4 | 0.00 | 0.35 | 0.00 | 75 | 1007.7 |
| 20260830120110 | 68 | 204 | 3.5 | 10.4 | 0.00 | 0.35 | 0.00 | 77 | 1007.7 |
| 20260830115559 | 68 | 212 | 4.3 | 9.6 | 0.00 | 0.37 | 0.00 | 78 | 1007.8 |
| 20260830115059 | 67 | 196 | 5.2 | 11.3 | 0.00 | 0.37 | 0.00 | 77 | 1007.9 |
| 20260830114613 | 67 | 216 | 5.2 | 11.3 | 0.00 | 0.37 | 0.00 | 77 | 1007.8 |
| 20260830114058 | 67 | 222 | 5.2 | 11.3 | 0.00 | 0.37 | 0.00 | 75 | 1007.9 |
| 20260830113557 | 68 | 200 | 4.3 | 9.6 | 0.00 | 0.37 | 0.00 | 75 | 1007.8 |
| 20260830113116 | 68 | 185 | 3.5 | 9.6 | 0.00 | 0.37 | 0.00 | 76 | 1007.8 |
| 20260830112557 | 68 | 173 | 4.3 | 9.6 | 0.00 | 0.37 | 0.00 | 75 | 1007.8 |
| 20260830112057 | 68 | 162 | 3.5 | 7.8 | 0.00 | 0.37 | 0.00 | 74 | 1007.9 |
| 20260830111606 | 68 | 194 | 4.3 | 10.4 | 0.00 | 0.37 | 0.00 | 74 | 1008.0 |
| 20260830111101 | 69 | 181 | 4.3 | 10.4 | 0.00 | 0.37 | 0.00 | 73 | 1008.0 |
| 20260830110557 | 69 | 194 | 4.3 | 9.6 | 0.00 | 0.37 | 0.00 | 74 | 1008.0 |
| 20260830110106 | 69 | 166 | 3.5 | 10.4 | 0.00 | 0.37 | 0.00 | 75 | 1008.0 |
| 20260830105559 | 70 | 162 | 6.1 | 15.6 | 0.00 | 0.68 | 0.00 | 73 | 1008.1 |
| 20260830105057 | 70 | 205 | 7.0 | 15.6 | 0.00 | 0.68 | 0.00 | 73 | 1008.2 |
| 20260830104612 | 69 | 200 | 4.3 | 9.6 | 0.00 | 0.68 | 0.00 | 72 | 1008.3 |
| 20260830104058 | 69 | 195 | 4.3 | 8.7 | 0.00 | 0.68 | 0.00 | 73 | 1008.4 |
| 20260830103558 | 68 | 161 | 4.3 | 8.7 | 0.00 | 0.68 | 0.00 | 74 | 1008.5 |